KC2DUX Weather Reports


Display with metric or nautical units.
time (UTC)temp
F
wind
direction
speed
MPH
gust
MPH
rain 1hr
in
rain 24hr
in
rain mn
in
humidity
%
barometer
mb
20260509175033 66 234 10.0 25.0 0.00 0.00 0.00 73 1010.4
20260509174535 66 269 15.0 25.0 0.00 0.00 0.00 72 1010.3
20260509174031 67 221 10.0 24.0 0.00 0.00 0.00 70 1010.3
20260509173529 67 239 11.0 24.0 0.00 0.00 0.00 70 1010.4
20260509173029 67 246 9.0 23.0 0.00 0.00 0.00 69 1010.5
20260509172527 67 232 14.0 24.0 0.00 0.00 0.00 67 1010.6
20260509172027 67 214 12.0 24.0 0.00 0.00 0.00 69 1010.7
20260509171532 67 203 12.0 22.0 0.00 0.00 0.00 69 1010.7
20260509171026 68 223 8.0 23.0 0.00 0.00 0.00 68 1010.9
20260509170526 68 250 13.0 24.0 0.00 0.00 0.00 68 1011.0
20260509170025 68 225 11.0 26.0 0.00 0.00 0.00 64 1011.0
20260509165530 68 223 9.0 21.0 0.00 0.00 0.00 64 1011.0
20260509165024 68 211 11.0 21.0 0.00 0.00 0.00 64 1011.0
20260509164524 69 194 10.0 18.0 0.00 0.00 0.00 66 1010.8
20260509164024 70 244 12.0 19.0 0.00 0.00 0.00 65 1010.8
20260509163531 69 227 10.0 19.0 0.00 0.00 0.00 65 1010.8
20260509163025 69 232 8.0 18.0 0.00 0.00 0.00 64 1010.6
20260509162523 70 239 8.0 15.0 0.00 0.00 0.00 64 1010.8
20260509162021 69 184 6.0 16.0 0.00 0.00 0.00 66 1010.9
20260509161522 68 217 7.0 16.0 0.00 0.00 0.00 67 1011.0
20260509161018 68 215 7.0 14.0 0.00 0.00 0.00 67 1011.2
20260509160517 68 221 5.0 12.0 0.00 0.00 0.00 68 1011.4
20260509160020 67 236 6.0 14.0 0.00 0.00 0.00 66 1011.6
20260509155515 67 223 6.0 14.0 0.00 0.00 0.00 68 1011.7
20260509155016 66 229 6.0 15.0 0.00 0.00 0.00 68 1011.8
20260509154516 66 211 8.0 15.0 0.00 0.00 0.00 69 1011.9
20260509154012 66 198 8.0 15.0 0.00 0.00 0.00 68 1012.0
20260509153513 67 190 6.0 13.0 0.00 0.00 0.00 67 1012.1
20260509153028 67 229 7.0 12.0 0.00 0.00 0.00 66 1012.1
20260509152512 67 211 6.0 11.0 0.00 0.00 0.00 66 1012.1
20260509152022 67 197 5.0 11.0 0.00 0.00 0.00 66 1012.2
20260509151510 67 206 5.0 16.0 0.00 0.00 0.00 66 1012.3
20260509151010 67 229 6.0 16.0 0.00 0.00 0.00 66 1012.3
20260509150510 67 205 9.0 15.0 0.00 0.00 0.00 64 1012.3
20260509150011 67 213 6.0 14.0 0.00 0.00 0.00 64 1012.3
20260509145509 67 217 8.0 14.0 0.00 0.00 0.00 64 1012.3
20260509145015 66 186 8.0 17.0 0.00 0.00 0.00 63 1012.2
20260509144522 66 210 7.0 17.0 0.00 0.00 0.00 65 1012.3
20260509144014 66 238 8.0 19.0 0.00 0.00 0.00 65 1012.2
20260509143507 66 228 9.0 19.0 0.00 0.00 0.00 65 1012.2
20260509143007 65 225 7.0 16.0 0.00 0.00 0.00 65 1012.2
20260509142508 65 215 5.0 15.0 0.00 0.00 0.00 67 1012.2
20260509142008 65 221 7.0 15.0 0.00 0.00 0.00 66 1012.2
20260509141513 65 228 7.0 12.0 0.00 0.00 0.00 66 1012.3
20260509141008 65 183 5.0 11.0 0.00 0.00 0.00 67 1012.2
20260509140506 65 226 6.0 14.0 0.00 0.00 0.00 68 1012.2
20260509140007 65 196 7.0 14.0 0.00 0.00 0.00 67 1012.2
20260509135504 65 223 8.0 16.0 0.00 0.00 0.00 67 1012.3
20260509135004 65 215 8.0 17.0 0.00 0.00 0.00 65 1012.2
20260509134503 66 199 9.0 17.0 0.00 0.00 0.00 64 1012.3
20260509134003 66 242 7.0 15.0 0.00 0.00 0.00 66 1012.3
20260509133504 65 230 7.0 15.0 0.00 0.00 0.00 65 1012.3
20260509133007 65 220 7.0 14.0 0.00 0.00 0.00 65 1012.3
20260509132502 65 236 6.0 13.0 0.00 0.00 0.00 64 1012.4
20260509132001 65 222 7.0 13.0 0.00 0.00 0.00 64 1012.4
20260509131501 65 245 9.0 17.0 0.00 0.00 0.00 62 1012.5
20260509131001 65 206 7.0 16.0 0.00 0.00 0.00 62 1012.4
20260509130501 65 271 9.0 16.0 0.00 0.00 0.00 61 1012.4
20260509130001 66 225 9.0 16.0 0.00 0.00 0.00 61 1012.4
20260509125559 66 229 8.0 16.0 0.00 0.00 0.00 62 1012.4
20260509125101 65 224 8.0 16.0 0.00 0.00 0.00 61 1012.5
20260509124600 65 208 5.0 14.0 0.00 0.00 0.00 63 1012.4
20260509124057 65 221 9.0 18.0 0.00 0.00 0.00 62 1012.4
20260509123656 64 237 7.0 18.0 0.00 0.00 0.00 63 1012.3
20260509123130 64 225 8.0 18.0 0.00 0.00 0.00 62 1012.4
20260509122555 64 238 8.0 17.0 0.00 0.00 0.00 62 1012.4
20260509122053 64 215 6.0 17.0 0.00 0.00 0.00 64 1012.4
20260509121610 63 209 8.0 16.0 0.00 0.00 0.00 64 1012.4
20260509121051 63 237 7.0 14.0 0.00 0.00 0.00 65 1012.5
20260509120551 63 196 6.0 14.0 0.00 0.00 0.00 64 1012.6
20260509120049 62 163 7.0 14.0 0.00 0.00 0.00 66 1012.5
20260509115548 62 215 9.0 16.0 0.00 0.00 0.00 64 1012.6
20260509115047 62 245 6.0 13.0 0.00 0.00 0.00 66 1012.5
20260509114550 62 238 6.0 11.0 0.00 0.00 0.00 67 1012.5
20260509114047 61 202 6.0 11.0 0.00 0.00 0.00 68 1012.6
20260509113546 61 209 6.0 11.0 0.00 0.00 0.00 69 1012.5
20260509113044 60 229 6.0 12.0 0.00 0.00 0.00 71 1012.5
20260509112541 60 241 6.0 13.0 0.00 0.00 0.00 73 1012.5
20260509112040 59 213 5.0 11.0 0.00 0.00 0.00 75 1012.7
20260509111556 58 218 5.0 11.0 0.00 0.00 0.00 76 1012.7
20260509111038 58 198 6.0 12.0 0.00 0.00 0.00 78 1012.8
20260509110539 57 221 5.0 12.0 0.00 0.00 0.00 79 1012.8
20260509110038 57 227 3.0 9.0 0.00 0.00 0.00 79 1012.8
20260509105537 57 227 3.0 7.0 0.00 0.00 0.00 79 1012.7
20260509105037 57 227 3.0 6.0 0.00 0.00 0.00 79 1012.7
20260509104543 57 198 3.0 7.0 0.00 0.00 0.00 78 1012.6
20260509104036 57 220 3.0 11.0 0.00 0.00 0.00 78 1012.6
20260509103536 58 224 4.0 10.0 0.00 0.00 0.00 77 1012.6
20260509103038 58 204 4.0 11.0 0.00 0.00 0.00 77 1012.7
20260509102536 58 232 5.0 11.0 0.00 0.00 0.00 76 1012.7
20260509102036 58 222 4.0 13.0 0.00 0.00 0.00 76 1012.6
20260509101558 58 214 5.0 10.0 0.00 0.00 0.00 76 1012.6
20260509101034 58 216 5.0 9.0 0.00 0.00 0.00 75 1012.6
20260509100540 58 212 3.0 12.0 0.00 0.00 0.00 75 1012.5
20260509100040 58 205 5.0 12.0 0.00 0.00 0.00 74 1012.5
20260509095533 58 211 5.0 10.0 0.00 0.00 0.00 74 1012.5
20260509095034 58 222 5.0 11.0 0.00 0.00 0.00 74 1012.4
20260509094538 58 229 5.0 11.0 0.00 0.00 0.00 74 1012.4
20260509094033 58 211 4.0 10.0 0.00 0.00 0.00 74 1012.4
20260509093534 58 228 5.0 10.0 0.00 0.00 0.00 73 1012.4
20260509093033 58 240 6.0 12.0 0.00 0.00 0.00 72 1012.4
20260509092531 58 195 5.0 10.0 0.00 0.00 0.00 73 1012.5
20260509092032 58 235 5.0 12.0 0.00 0.00 0.00 72 1012.4
20260509091538 58 213 7.0 12.0 0.00 0.00 0.00 72 1012.3
20260509091031 58 215 5.0 11.0 0.00 0.00 0.00 72 1012.4
20260509090532 58 224 5.0 16.0 0.00 0.00 0.00 71 1012.5
20260509090036 58 225 8.0 16.0 0.00 0.00 0.00 71 1012.5
20260509085529 58 205 6.0 10.0 0.00 0.00 0.00 71 1012.4
20260509085029 58 212 5.0 10.0 0.00 0.00 0.00 71 1012.4
20260509084528 59 221 5.0 12.0 0.00 0.00 0.00 71 1012.5
20260509084030 59 221 6.0 12.0 0.00 0.00 0.00 70 1012.5
20260509083525 59 207 5.0 12.0 0.00 0.00 0.00 71 1012.5
20260509083024 59 209 7.0 12.0 0.00 0.00 0.00 70 1012.5
20260509082523 59 256 5.0 12.0 0.00 0.00 0.00 71 1012.6
20260509082022 59 219 5.0 13.0 0.00 0.00 0.00 70 1012.5
20260509081526 58 234 7.0 16.0 0.00 0.00 0.00 70 1012.5
20260509081020 58 231 7.0 16.0 0.00 0.00 0.00 70 1012.6
20260509080519 58 222 6.0 14.0 0.00 0.00 0.00 70 1012.5
20260509080019 58 194 7.0 12.0 0.00 0.00 0.00 70 1012.6
20260509075519 58 225 7.0 12.0 0.00 0.00 0.00 70 1012.6
20260509075019 58 217 5.0 11.0 0.00 0.00 0.00 70 1012.6
20260509074529 58 208 4.0 11.0 0.00 0.00 0.00 70 1012.6
20260509074018 58 211 5.0 11.0 0.00 0.00 0.00 70 1012.7
20260509073517 58 232 6.0 11.0 0.00 0.00 0.00 69 1012.6
20260509073017 58 235 5.0 11.0 0.00 0.00 0.00 69 1012.7
20260509072516 58 223 4.0 11.0 0.00 0.00 0.00 69 1012.8
20260509072015 58 229 5.0 14.0 0.00 0.00 0.00 70 1012.8
20260509071512 58 211 5.0 11.0 0.00 0.00 0.00 69 1012.8
20260509071012 57 236 4.0 11.0 0.00 0.00 0.00 69 1012.8
20260509070511 57 223 5.0 10.0 0.00 0.00 0.00 69 1012.7
20260509070012 57 242 4.0 10.0 0.00 0.00 0.00 69 1012.7
20260509065510 57 232 4.0 10.0 0.00 0.00 0.00 69 1012.6
20260509065012 57 227 4.0 9.0 0.00 0.00 0.00 69 1012.7
20260509064507 57 248 5.0 10.0 0.00 0.00 0.00 69 1012.7
20260509064008 57 232 5.0 10.0 0.00 0.00 0.00 69 1012.6
20260509063504 57 208 4.0 9.0 0.00 0.00 0.00 69 1012.7
20260509063002 57 239 5.0 11.0 0.00 0.00 0.00 69 1012.8
20260509062502 57 239 5.0 11.0 0.00 0.00 0.00 69 1012.8
20260509062000 57 214 5.0 10.0 0.00 0.00 0.00 68 1012.8
20260509061604 57 233 6.0 10.0 0.00 0.00 0.00 68 1012.8
20260509061101 56 233 5.0 10.0 0.00 0.00 0.00 69 1012.8
20260509060557 56 242 4.0 10.0 0.00 0.00 0.00 69 1012.9
20260509060056 56 246 5.0 10.0 0.00 0.00 0.00 69 1012.9
20260509055554 56 223 4.0 12.0 0.00 0.00 0.00 69 1013.0
20260509055057 56 230 7.0 10.0 0.00 0.00 0.00 69 1013.0
20260509054600 56 240 5.0 10.0 0.00 0.00 0.00 69 1013.0
20260509054050 56 222 3.0 7.0 0.00 0.00 0.00 70 1013.0
20260509053549 56 227 4.0 8.0 0.00 0.00 0.00 70 1012.9
20260509053050 55 223 4.0 8.0 0.00 0.00 0.00 70 1013.0
20260509052546 56 244 4.0 9.0 0.00 0.00 0.00 70 1013.1
20260509052045 55 229 4.0 9.0 0.00 0.00 0.00 70 1013.0
20260509051544 55 201 4.0 8.0 0.00 0.00 0.00 70 1013.1
20260509051044 55 257 4.0 8.0 0.00 0.00 0.00 69 1013.2
20260509050544 55 222 3.0 8.0 0.00 0.00 0.00 69 1013.2
20260509050044 55 242 3.0 7.0 0.00 0.00 0.00 69 1013.2
20260509045545 55 223 2.0 12.0 0.00 0.00 0.00 69 1013.2
20260509045044 55 231 4.0 12.0 0.00 0.00 0.00 69 1013.1
20260509044543 55 221 4.0 7.0 0.00 0.00 0.00 69 1013.2
20260509044042 55 229 4.0 8.0 0.00 0.00 0.00 69 1013.1
20260509043541 55 234 5.0 8.0 0.00 0.00 0.00 69 1013.2
20260509043041 55 240 5.0 9.0 0.00 0.00 0.00 69 1013.3
20260509042541 55 244 3.0 10.0 0.00 0.00 0.00 69 1013.3
20260509042043 55 279 5.0 10.0 0.00 0.00 0.00 69 1013.2
20260509041608 55 236 3.0 7.0 0.00 0.00 0.00 69 1013.3
20260509041038 55 217 3.0 6.0 0.00 0.00 0.00 68 1013.3
20260509040537 55 230 2.0 6.0 0.00 0.00 0.00 68 1013.3
20260509040038 55 213 3.0 6.0 0.00 0.00 0.00 68 1013.3
20260509035536 55 227 3.0 5.0 0.00 0.00 0.00 68 1013.4
20260509035036 55 226 2.0 5.0 0.00 0.00 0.00 68 1013.4
20260509034536 55 225 2.0 7.0 0.00 0.00 0.00 68 1013.4
20260509034039 55 216 3.0 7.0 0.00 0.00 0.00 68 1013.4
20260509033535 55 219 2.0 6.0 0.00 0.00 0.00 68 1013.4
20260509033039 55 217 2.0 6.0 0.00 0.00 0.00 69 1013.4
20260509032535 55 217 3.0 6.0 0.00 0.00 0.00 69 1013.3
20260509032038 55 227 3.0 7.0 0.00 0.00 0.00 70 1013.3
20260509031537 54 234 3.0 6.0 0.00 0.00 0.00 71 1013.3
20260509031033 54 230 1.0 5.0 0.00 0.00 0.00 72 1013.2
20260509030533 54 217 2.0 5.0 0.00 0.00 0.00 72 1013.2
20260509030034 54 204 0.0 7.0 0.00 0.00 0.00 72 1013.2
20260509025532 54 225 1.0 7.0 0.00 0.00 0.00 72 1013.2
20260509025032 53 197 2.0 5.0 0.00 0.00 0.00 73 1013.1
20260509024532 53 193 0.0 4.0 0.00 0.00 0.00 73 1013.1
20260509024033 54 193 0.0 4.0 0.00 0.00 0.00 73 1013.2
20260509023533 54 215 0.0 6.0 0.00 0.00 0.00 72 1013.1
20260509023032 54 196 1.0 6.0 0.00 0.00 0.00 72 1013.2
20260509022532 54 213 1.0 4.0 0.00 0.00 0.00 71 1013.2
20260509022032 55 216 0.0 4.0 0.00 0.00 0.00 70 1013.2
20260509021535 55 198 1.0 4.0 0.00 0.00 0.00 70 1013.3
20260509021035 55 250 1.0 5.0 0.00 0.00 0.00 69 1013.3
20260509020531 55 192 0.0 7.0 0.00 0.00 0.00 69 1013.2
20260509020043 55 205 1.0 7.0 0.00 0.00 0.00 68 1013.2
20260509015531 55 213 2.0 4.0 0.00 0.00 0.00 68 1013.1
20260509015030 56 205 1.0 3.0 0.00 0.00 0.00 67 1013.1
20260509014532 56 185 1.0 5.0 0.00 0.00 0.00 67 1013.2
20260509014030 56 217 2.0 5.0 0.00 0.00 0.00 67 1013.1
20260509013530 56 221 2.0 5.0 0.00 0.00 0.00 67 1013.1
20260509013040 56 218 2.0 6.0 0.00 0.00 0.00 68 1013.1
20260509012532 56 223 1.0 6.0 0.00 0.00 0.00 69 1013.1
20260509012030 56 206 2.0 8.0 0.00 0.00 0.00 69 1013.0
20260509011530 56 215 3.0 7.0 0.00 0.00 0.00 70 1012.9
20260509011028 56 209 4.0 6.0 0.00 0.00 0.00 70 1012.8
20260509010532 56 228 3.0 9.0 0.00 0.00 0.00 70 1012.7
20260509010028 56 199 5.0 9.0 0.00 0.00 0.00 70 1012.6
20260509005529 56 220 5.0 8.0 0.00 0.00 0.00 71 1012.5
20260509005029 56 221 3.0 7.0 0.00 0.00 0.00 71 1012.5
20260509004532 56 218 3.0 7.0 0.00 0.00 0.00 71 1012.4
20260509004027 56 215 3.0 6.0 0.00 0.00 0.00 70 1012.4
20260509003528 56 212 2.0 4.0 0.00 0.00 0.00 70 1012.4
20260509003028 57 213 2.0 5.0 0.00 0.00 0.00 70 1012.3
20260509002527 57 229 2.0 5.0 0.00 0.00 0.00 69 1012.3
20260509002027 57 219 2.0 7.0 0.00 0.00 0.00 69 1012.2
20260509001527 57 227 2.0 6.0 0.00 0.00 0.00 68 1012.2
20260509001026 57 134 2.0 5.0 0.00 0.00 0.00 68 1012.2
20260509000527 57 196 2.0 6.0 0.00 0.00 0.00 67 1012.2
20260509000026 57 205 2.0 7.0 0.00 0.00 0.00 67 1012.2
20260508235526 58 229 3.0 7.0 0.00 0.00 0.00 67 1012.2
20260508235026 58 184 3.0 7.0 0.00 0.00 0.00 67 1012.0
20260508234530 58 190 2.0 7.0 0.00 0.00 0.00 66 1012.0
20260508234030 58 201 2.0 7.0 0.00 0.00 0.00 65 1011.9
20260508233526 59 207 2.0 6.0 0.00 0.00 0.00 64 1011.9
20260508233027 59 202 2.0 7.0 0.00 0.00 0.00 64 1011.8
20260508232525 59 178 3.0 7.0 0.00 0.00 0.00 63 1011.9
20260508232025 60 218 3.0 6.0 0.00 0.00 0.00 63 1011.7
20260508231525 60 221 2.0 6.0 0.00 0.00 0.00 62 1011.7
20260508231024 60 207 2.0 8.0 0.00 0.00 0.00 62 1011.7
20260508230523 60 195 3.0 8.0 0.00 0.00 0.00 62 1011.7
20260508230037 60 211 4.0 9.0 0.00 0.00 0.00 61 1011.6
20260508225523 61 213 4.0 9.0 0.00 0.00 0.00 61 1011.6
20260508225025 60 225 4.0 9.0 0.00 0.00 0.00 61 1011.7
20260508224526 61 217 5.0 10.0 0.00 0.00 0.00 60 1011.6
20260508224023 61 198 5.0 12.0 0.00 0.00 0.00 58 1011.6
20260508223527 61 218 5.0 12.0 0.00 0.00 0.00 57 1011.7
20260508223028 61 224 5.0 11.0 0.00 0.00 0.00 58 1011.5
20260508222522 61 252 6.0 10.0 0.00 0.00 0.00 56 1011.4
20260508222024 62 225 5.0 11.0 0.00 0.00 0.00 55 1011.4
20260508221521 62 230 6.0 12.0 0.00 0.00 0.00 55 1011.4
20260508221021 62 196 5.0 9.0 0.00 0.00 0.00 54 1011.5
20260508220521 62 214 5.0 10.0 0.00 0.00 0.00 54 1011.4
20260508220026 62 109 5.0 10.0 0.00 0.00 0.00 53 1011.5
20260508215530 62 219 5.0 11.0 0.00 0.00 0.00 53 1011.5
20260508215020 62 219 5.0 15.0 0.00 0.00 0.00 52 1011.5
20260508214527 62 194 8.0 14.0 0.00 0.00 0.00 52 1011.6
20260508214019 62 214 6.0 14.0 0.00 0.00 0.00 51 1011.7
20260508213519 63 191 6.0 16.0 0.00 0.00 0.00 50 1011.6
20260508213019 63 238 8.0 16.0 0.00 0.00 0.00 47 1011.6
20260508212519 63 208 6.0 14.0 0.00 0.00 0.00 47 1011.7
20260508212018 63 208 7.0 12.0 0.00 0.00 0.00 47 1011.7
20260508211532 63 200 6.0 12.0 0.00 0.00 0.00 47 1011.8
20260508211019 63 225 8.0 17.0 0.00 0.00 0.00 47 1011.8
20260508210518 63 217 9.0 13.0 0.00 0.00 0.00 46 1011.8
20260508210017 63 187 5.0 15.0 0.00 0.00 0.00 44 1011.9
20260508205517 63 221 7.0 19.0 0.00 0.00 0.00 44 1011.9
20260508205019 63 211 8.0 18.0 0.00 0.00 0.00 46 1011.8
20260508204519 63 213 8.0 14.0 0.00 0.00 0.00 46 1011.9
20260508204016 64 222 7.0 14.0 0.00 0.00 0.00 44 1011.9
20260508203516 64 219 5.0 14.0 0.00 0.00 0.00 43 1011.9
20260508203017 64 212 7.0 13.0 0.00 0.00 0.00 43 1012.0
20260508202517 64 219 6.0 12.0 0.00 0.00 0.00 43 1012.0
20260508202016 64 224 7.0 17.0 0.00 0.00 0.00 44 1012.0
20260508201516 64 233 8.0 17.0 0.00 0.00 0.00 42 1012.1
20260508201015 64 203 8.0 17.0 0.00 0.00 0.00 43 1012.2
20260508200515 64 211 8.0 15.0 0.00 0.00 0.00 44 1012.2
20260508200014 65 196 7.0 14.0 0.00 0.00 0.00 44 1012.2
20260508195514 65 209 8.0 17.0 0.00 0.00 0.00 42 1012.2
20260508195014 66 221 8.0 17.0 0.00 0.00 0.00 41 1012.2
20260508194526 66 231 6.0 11.0 0.00 0.00 0.00 40 1012.2
20260508194013 66 250 7.0 12.0 0.00 0.00 0.00 39 1012.3
20260508193513 67 225 5.0 15.0 0.00 0.00 0.00 39 1012.4
20260508193013 67 229 7.0 11.0 0.00 0.00 0.00 37 1012.4
20260508192518 67 234 6.0 13.0 0.00 0.00 0.00 38 1012.5
20260508192012 67 213 7.0 16.0 0.00 0.00 0.00 37 1012.4
20260508191511 67 234 5.0 16.0 0.00 0.00 0.00 37 1012.4
20260508191010 66 219 5.0 10.0 0.00 0.00 0.00 38 1012.5
20260508190513 66 246 6.0 12.0 0.00 0.00 0.00 39 1012.6
20260508190013 66 236 8.0 13.0 0.00 0.00 0.00 38 1012.6
20260508185509 66 267 5.0 10.0 0.00 0.00 0.00 38 1012.6
20260508185010 66 181 6.0 11.0 0.00 0.00 0.00 38 1012.7
20260508184509 66 236 6.0 11.0 0.00 0.00 0.00 37 1012.8
20260508184007 65 236 5.0 11.0 0.00 0.00 0.00 38 1012.8
20260508183508 65 206 5.0 17.0 0.00 0.00 0.00 38 1012.8
20260508183011 65 210 5.0 12.0 0.00 0.00 0.00 38 1012.9
20260508182507 65 231 4.0 13.0 0.00 0.00 0.00 37 1012.9
20260508182006 65 297 4.0 13.0 0.00 0.00 0.00 40 1012.9
20260508181507 65 214 6.0 14.0 0.00 0.00 0.00 40 1013.0
20260508181004 64 253 6.0 14.0 0.00 0.00 0.00 39 1012.9
20260508180504 64 248 6.0 10.0 0.00 0.00 0.00 41 1013.0
20260508180011 64 254 5.0 10.0 0.00 0.00 0.00 41 1013.1
20260508175502 64 197 6.0 12.0 0.00 0.00 0.00 39 1013.1